| time (UTC) | temp F | wind direction | speed MPH | gust MPH | rain 1hr in | rain 24hr in | rain mn in | humidity % | barometer mb |
| 20260901173037 | 72 | 205 | 1.0 | 7.0 | 0.01 | 1.15 | 1.15 | 97 | 1015.7 |
| 20260901172519 | 72 | 149 | 1.0 | 6.0 | 0.01 | 1.15 | 1.15 | 97 | 1015.8 |
| 20260901172022 | 72 | 9 | 1.0 | 5.0 | 0.01 | 1.15 | 1.15 | 97 | 1015.9 |
| 20260901171539 | 71 | 193 | 2.0 | 5.0 | 0.02 | 1.15 | 1.15 | 96 | 1015.8 |
| 20260901171019 | 71 | 210 | 2.0 | 5.0 | 0.02 | 1.15 | 1.15 | 96 | 1015.8 |
| 20260901170518 | 71 | 146 | 1.0 | 5.0 | 0.02 | 1.15 | 1.15 | 97 | 1015.9 |
| 20260901170051 | 71 | 119 | 1.0 | 7.0 | 0.02 | 1.15 | 1.15 | 96 | 1015.9 |
| 20260901165516 | 71 | 165 | 2.0 | 8.0 | 0.02 | 1.15 | 1.15 | 97 | 1015.8 |
| 20260901165020 | 71 | 209 | 3.0 | 8.0 | 0.02 | 1.15 | 1.15 | 96 | 1015.6 |
| 20260901164540 | 71 | 198 | 2.0 | 6.0 | 0.03 | 1.15 | 1.15 | 96 | 1015.7 |
| 20260901164021 | 71 | 205 | 1.0 | 4.0 | 0.06 | 1.15 | 1.15 | 96 | 1015.8 |
| 20260901163519 | 71 | 178 | 0.0 | 3.0 | 0.07 | 1.15 | 1.15 | 96 | 1016.1 |
| 20260901163042 | 71 | 187 | 0.0 | 3.0 | 0.07 | 1.14 | 1.14 | 96 | 1016.3 |
| 20260901162517 | 71 | 221 | 0.0 | 3.0 | 0.08 | 1.14 | 1.14 | 96 | 1016.3 |
| 20260901162020 | 71 | 0 | 0.0 | 3.0 | 0.09 | 1.14 | 1.14 | 96 | 1016.2 |
| 20260901161541 | 71 | 83 | 1.0 | 3.0 | 0.09 | 1.13 | 1.13 | 96 | 1016.2 |
| 20260901161016 | 71 | 0 | 1.0 | 3.0 | 0.10 | 1.13 | 1.13 | 97 | 1016.4 |
| 20260901160520 | 71 | 41 | 1.0 | 3.0 | 0.10 | 1.13 | 1.13 | 97 | 1016.5 |
| 20260901155519 | 70 | 0 | 0.0 | 5.0 | 0.10 | 1.13 | 1.13 | 97 | 1016.9 |
| 20260901155019 | 70 | 205 | 1.0 | 5.0 | 0.10 | 1.13 | 1.13 | 96 | 1017.0 |
| 20260901154538 | 70 | 238 | 1.0 | 5.0 | 0.09 | 1.11 | 1.11 | 96 | 1016.9 |
| 20260901154021 | 70 | 170 | 1.0 | 5.0 | 0.07 | 1.09 | 1.09 | 96 | 1017.0 |
| 20260901153521 | 70 | 149 | 1.0 | 5.0 | 0.07 | 1.08 | 1.08 | 96 | 1017.0 |
| 20260901153041 | 70 | 162 | 1.0 | 4.0 | 0.06 | 1.07 | 1.07 | 96 | 1017.2 |
| 20260901152520 | 70 | 137 | 0.0 | 5.0 | 0.06 | 1.05 | 1.05 | 97 | 1017.2 |
| 20260901152020 | 70 | 153 | 1.0 | 5.0 | 0.05 | 1.04 | 1.04 | 96 | 1017.2 |
| 20260901151544 | 70 | 221 | 2.0 | 5.0 | 0.05 | 1.04 | 1.04 | 96 | 1017.1 |
| 20260901151017 | 70 | 188 | 1.0 | 5.0 | 0.04 | 1.03 | 1.03 | 96 | 1016.8 |
| 20260901150524 | 70 | 165 | 2.0 | 5.0 | 0.04 | 1.03 | 1.03 | 96 | 1016.9 |
| 20260901150045 | 70 | 205 | 1.0 | 6.0 | 0.05 | 1.03 | 1.03 | 96 | 1016.8 |
| 20260901145521 | 70 | 185 | 2.0 | 6.0 | 0.05 | 1.03 | 1.03 | 96 | 1017.1 |
| 20260901145018 | 70 | 0 | 1.0 | 3.0 | 0.05 | 1.03 | 1.03 | 96 | 1017.2 |
| 20260901144546 | 70 | 0 | 1.0 | 3.0 | 0.04 | 1.02 | 1.02 | 96 | 1017.2 |
| 20260901144019 | 70 | 137 | 1.0 | 3.0 | 0.04 | 1.02 | 1.02 | 96 | 1017.1 |
| 20260901143519 | 69 | 0 | 0.0 | 3.0 | 0.03 | 1.01 | 1.01 | 96 | 1017.2 |
| 20260901143052 | 69 | 195 | 1.0 | 5.0 | 0.02 | 1.00 | 1.00 | 96 | 1017.1 |
| 20260901142517 | 69 | 171 | 1.0 | 5.0 | 0.02 | 1.00 | 1.00 | 96 | 1017.0 |
| 20260901142023 | 69 | 200 | 1.0 | 4.0 | 0.02 | 1.00 | 1.00 | 96 | 1017.0 |
| 20260901141541 | 69 | 243 | 1.0 | 4.0 | 0.01 | 0.99 | 0.99 | 96 | 1017.3 |
| 20260901141021 | 69 | 105 | 1.0 | 4.0 | 0.01 | 0.99 | 0.99 | 96 | 1017.4 |
| 20260901140521 | 69 | 265 | 2.0 | 3.0 | 0.00 | 0.98 | 0.98 | 96 | 1017.6 |
| 20260901140118 | 69 | 67 | 1.0 | 3.0 | 0.00 | 0.98 | 0.98 | 96 | 1017.5 |
| 20260901135518 | 69 | 115 | 1.0 | 3.0 | 0.00 | 0.98 | 0.98 | 96 | 1017.1 |
| 20260901135018 | 69 | 61 | 1.0 | 3.0 | 0.00 | 0.98 | 0.98 | 96 | 1017.3 |
| 20260901134541 | 69 | 51 | 1.0 | 2.0 | 0.00 | 0.98 | 0.98 | 96 | 1017.2 |
| 20260901134022 | 69 | 61 | 1.0 | 3.0 | 0.00 | 0.98 | 0.98 | 96 | 1017.1 |
| 20260901133519 | 69 | 123 | 1.0 | 3.0 | 0.00 | 0.98 | 0.98 | 96 | 1017.0 |
| 20260901133041 | 69 | 30 | 1.0 | 3.0 | 0.00 | 0.98 | 0.98 | 96 | 1016.9 |
| 20260901132519 | 69 | 0 | 1.0 | 3.0 | 0.00 | 0.98 | 0.98 | 96 | 1017.0 |
| 20260901132022 | 69 | 119 | 1.0 | 3.0 | 0.00 | 0.98 | 0.98 | 96 | 1017.0 |
| 20260901131543 | 69 | 61 | 1.0 | 2.0 | 0.00 | 0.98 | 0.98 | 96 | 1017.0 |
| 20260901131023 | 69 | 0 | 0.0 | 2.0 | 0.00 | 0.98 | 0.98 | 96 | 1017.0 |
| 20260901130522 | 69 | 232 | 0.0 | 3.0 | 0.00 | 0.98 | 0.98 | 96 | 1016.9 |
| 20260901130044 | 69 | 0 | 1.0 | 3.0 | 0.00 | 0.98 | 0.98 | 96 | 1016.9 |
| 20260901125520 | 69 | 0 | 0.0 | 3.0 | 0.00 | 0.98 | 0.98 | 96 | 1017.0 |
| 20260901125016 | 69 | 0 | 1.0 | 3.0 | 0.00 | 0.98 | 0.98 | 96 | 1017.0 |
| 20260901124540 | 69 | 0 | 1.0 | 3.0 | 0.00 | 0.98 | 0.98 | 96 | 1017.0 |
| 20260901124025 | 69 | 61 | 1.0 | 4.0 | 0.00 | 0.98 | 0.98 | 96 | 1017.1 |
| 20260901123523 | 69 | 0 | 1.0 | 4.0 | 0.00 | 0.98 | 0.98 | 96 | 1017.2 |
| 20260901123043 | 69 | 67 | 1.0 | 3.0 | 0.00 | 0.98 | 0.98 | 96 | 1017.2 |
| 20260901122521 | 69 | 34 | 1.0 | 3.0 | 0.00 | 0.98 | 0.98 | 96 | 1017.2 |
| 20260901122018 | 69 | 51 | 1.0 | 3.0 | 0.00 | 0.98 | 0.98 | 96 | 1017.3 |
| 20260901121543 | 69 | 59 | 1.0 | 3.0 | 0.00 | 0.98 | 0.98 | 96 | 1017.2 |
| 20260901121019 | 69 | 0 | 1.0 | 2.0 | 0.00 | 0.98 | 0.98 | 96 | 1017.0 |
| 20260901120521 | 69 | 126 | 1.0 | 2.0 | 0.00 | 0.98 | 0.98 | 96 | 1017.2 |
| 20260901120041 | 69 | 153 | 0.0 | 3.0 | 0.00 | 0.98 | 0.98 | 96 | 1017.3 |
| 20260901115519 | 68 | 93 | 0.0 | 3.0 | 0.00 | 0.98 | 0.98 | 96 | 1017.3 |
| 20260901115028 | 68 | 119 | 0.0 | 2.0 | 0.00 | 0.98 | 0.98 | 96 | 1017.1 |
| 20260901114539 | 68 | 9 | 0.0 | 2.0 | 0.00 | 0.98 | 0.98 | 96 | 1017.3 |
| 20260901114019 | 68 | 0 | 0.0 | 4.0 | 0.00 | 0.98 | 0.98 | 96 | 1017.1 |
| 20260901113528 | 68 | 68 | 0.0 | 4.0 | 0.00 | 0.98 | 0.98 | 96 | 1017.0 |
| 20260901113043 | 68 | 162 | 1.0 | 4.0 | 0.00 | 0.98 | 0.98 | 96 | 1016.8 |
| 20260901112522 | 68 | 61 | 0.0 | 2.0 | 0.00 | 0.98 | 0.98 | 96 | 1016.8 |
| 20260901112020 | 68 | 137 | 0.0 | 2.0 | 0.00 | 0.98 | 0.98 | 96 | 1016.8 |
| 20260901111542 | 68 | 137 | 0.0 | 2.0 | 0.00 | 0.98 | 0.98 | 96 | 1017.0 |
| 20260901111021 | 68 | 72 | 1.0 | 2.0 | 0.00 | 0.98 | 0.98 | 96 | 1017.1 |
| 20260901110519 | 68 | 0 | 0.0 | 2.0 | 0.00 | 0.98 | 0.98 | 96 | 1017.1 |
| 20260901110040 | 68 | 0 | 1.0 | 2.0 | 0.00 | 0.98 | 0.98 | 96 | 1017.0 |
| 20260901105525 | 68 | 153 | 0.0 | 2.0 | 0.00 | 0.98 | 0.98 | 96 | 1017.2 |
| 20260901105021 | 68 | 0 | 0.0 | 2.0 | 0.00 | 0.98 | 0.98 | 96 | 1017.4 |
| 20260901104538 | 68 | 0 | 0.0 | 1.0 | 0.00 | 0.98 | 0.98 | 96 | 1017.1 |
| 20260901104021 | 68 | 0 | 0.0 | 2.0 | 0.00 | 0.98 | 0.98 | 96 | 1017.1 |
| 20260901103521 | 68 | 0 | 0.0 | 2.0 | 0.00 | 0.98 | 0.98 | 96 | 1017.2 |
| 20260901103044 | 68 | 9 | 0.0 | 3.0 | 0.00 | 0.98 | 0.98 | 96 | 1017.3 |
| 20260901102521 | 67 | 108 | 0.0 | 3.0 | 0.00 | 0.98 | 0.98 | 96 | 1017.2 |
| 20260901102021 | 68 | 334 | 1.0 | 3.0 | 0.00 | 0.98 | 0.98 | 96 | 1017.2 |
| 20260901101555 | 67 | 108 | 0.0 | 2.0 | 0.00 | 0.98 | 0.98 | 96 | 1017.0 |
| 20260901101020 | 67 | 0 | 0.0 | 2.0 | 0.00 | 0.98 | 0.98 | 96 | 1016.9 |
| 20260901100517 | 67 | 325 | 0.0 | 2.0 | 0.00 | 0.98 | 0.98 | 96 | 1016.8 |
| 20260901100048 | 67 | 129 | 0.0 | 2.0 | 0.00 | 0.98 | 0.98 | 96 | 1016.8 |
| 20260901095520 | 67 | 0 | 0.0 | 2.0 | 0.00 | 0.98 | 0.98 | 96 | 1016.8 |
| 20260901095018 | 67 | 0 | 0.0 | 2.0 | 0.00 | 0.98 | 0.98 | 96 | 1017.0 |
| 20260901094545 | 67 | 51 | 0.0 | 3.0 | 0.00 | 0.98 | 0.98 | 96 | 1016.9 |
| 20260901094019 | 67 | 0 | 0.0 | 3.0 | 0.00 | 0.98 | 0.98 | 96 | 1017.0 |
| 20260901093519 | 67 | 0 | 0.0 | 2.0 | 0.00 | 0.98 | 0.98 | 96 | 1016.9 |
| 20260901093042 | 67 | 0 | 0.0 | 2.0 | 0.00 | 0.98 | 0.98 | 96 | 1017.0 |
| 20260901092520 | 67 | 0 | 0.0 | 3.0 | 0.00 | 0.98 | 0.98 | 96 | 1017.1 |
| 20260901092021 | 67 | 61 | 1.0 | 3.0 | 0.00 | 0.98 | 0.98 | 96 | 1017.1 |
| 20260901091552 | 67 | 221 | 0.0 | 4.0 | 0.01 | 0.98 | 0.98 | 96 | 1017.1 |
| 20260901091018 | 67 | 137 | 0.0 | 4.0 | 0.01 | 0.98 | 0.98 | 96 | 1017.1 |
| 20260901090519 | 67 | 137 | 1.0 | 2.0 | 0.01 | 0.98 | 0.98 | 96 | 1017.1 |
| 20260901090039 | 67 | 93 | 0.0 | 3.0 | 0.01 | 0.98 | 0.98 | 96 | 1017.1 |
| 20260901085517 | 67 | 0 | 1.0 | 3.0 | 0.01 | 0.99 | 0.98 | 96 | 1017.2 |
| 20260901085023 | 67 | 0 | 0.0 | 2.0 | 0.01 | 0.99 | 0.98 | 96 | 1017.2 |
| 20260901084542 | 67 | 0 | 0.0 | 2.0 | 0.01 | 0.99 | 0.98 | 96 | 1017.2 |
| 20260901084019 | 67 | 265 | 0.0 | 2.0 | 0.01 | 0.99 | 0.98 | 96 | 1017.2 |
| 20260901083518 | 67 | 334 | 0.0 | 3.0 | 0.01 | 0.99 | 0.98 | 96 | 1017.4 |
| 20260901083044 | 67 | 0 | 1.0 | 3.0 | 0.01 | 0.99 | 0.98 | 96 | 1017.3 |
| 20260901082517 | 67 | 105 | 1.0 | 3.0 | 0.01 | 0.99 | 0.98 | 96 | 1017.5 |
| 20260901082019 | 67 | 68 | 1.0 | 3.0 | 0.01 | 0.99 | 0.98 | 96 | 1017.5 |
| 20260901081539 | 67 | 80 | 1.0 | 3.0 | 0.00 | 0.98 | 0.97 | 96 | 1017.5 |
| 20260901081020 | 67 | 80 | 1.0 | 3.0 | 0.00 | 0.98 | 0.97 | 95 | 1017.6 |
| 20260901080521 | 67 | 0 | 1.0 | 3.0 | 0.00 | 0.98 | 0.97 | 95 | 1017.7 |
| 20260901080123 | 67 | 30 | 1.0 | 2.0 | 0.00 | 0.98 | 0.97 | 95 | 1017.7 |
| 20260901075519 | 67 | 0 | 1.0 | 3.0 | 0.00 | 0.98 | 0.97 | 95 | 1017.7 |
| 20260901075018 | 67 | 93 | 0.0 | 4.0 | 0.00 | 0.98 | 0.97 | 95 | 1017.7 |
| 20260901074540 | 67 | 330 | 0.0 | 4.0 | 0.00 | 0.98 | 0.97 | 95 | 1017.7 |
| 20260901074019 | 67 | 163 | 1.0 | 3.0 | 0.00 | 0.98 | 0.97 | 95 | 1017.8 |
| 20260901073517 | 67 | 0 | 1.0 | 2.0 | 0.00 | 0.98 | 0.97 | 95 | 1017.7 |
| 20260901073041 | 67 | 0 | 0.0 | 2.0 | 0.00 | 0.98 | 0.97 | 95 | 1017.7 |
| 20260901072521 | 67 | 265 | 0.0 | 2.0 | 0.00 | 0.98 | 0.97 | 95 | 1017.7 |
| 20260901072021 | 67 | 0 | 0.0 | 3.0 | 0.01 | 0.98 | 0.97 | 95 | 1017.7 |
| 20260901071541 | 67 | 0 | 0.0 | 5.0 | 0.03 | 0.98 | 0.97 | 95 | 1017.8 |
| 20260901071026 | 67 | 0 | 0.0 | 5.0 | 0.06 | 0.98 | 0.97 | 95 | 1017.8 |
| 20260901070519 | 67 | 212 | 2.0 | 5.0 | 0.14 | 0.98 | 0.97 | 95 | 1017.8 |
| 20260901070041 | 67 | 85 | 0.0 | 4.0 | 0.16 | 0.98 | 0.97 | 95 | 1017.9 |
| 20260901065519 | 67 | 205 | 1.0 | 5.0 | 0.24 | 0.98 | 0.97 | 95 | 1017.9 |
| 20260901065018 | 67 | 178 | 1.0 | 5.0 | 0.32 | 0.98 | 0.97 | 95 | 1017.9 |
| 20260901064540 | 67 | 157 | 1.0 | 4.0 | 0.37 | 0.98 | 0.97 | 95 | 1017.8 |
| 20260901064021 | 67 | 146 | 1.0 | 6.0 | 0.39 | 0.98 | 0.97 | 95 | 1017.9 |
| 20260901063522 | 67 | 0 | 0.0 | 6.0 | 0.39 | 0.98 | 0.97 | 95 | 1017.9 |
| 20260901063053 | 67 | 173 | 1.0 | 5.0 | 0.43 | 0.98 | 0.97 | 95 | 1018.0 |
| 20260901062520 | 67 | 217 | 1.0 | 4.0 | 0.45 | 0.98 | 0.97 | 95 | 1018.1 |
| 20260901062017 | 67 | 196 | 1.0 | 3.0 | 0.47 | 0.97 | 0.96 | 95 | 1018.3 |
| 20260901061558 | 67 | 178 | 1.0 | 4.0 | 0.48 | 0.94 | 0.93 | 95 | 1018.3 |
| 20260901061019 | 67 | 93 | 1.0 | 4.0 | 0.51 | 0.91 | 0.90 | 95 | 1018.3 |
| 20260901060519 | 67 | 321 | 1.0 | 3.0 | 0.46 | 0.83 | 0.82 | 95 | 1018.3 |
| 20260901060042 | 68 | 0 | 1.0 | 4.0 | 0.48 | 0.81 | 0.80 | 95 | 1018.2 |
| 20260901055521 | 68 | 265 | 1.0 | 9.0 | 0.45 | 0.72 | 0.71 | 95 | 1018.2 |
| 20260901055021 | 68 | 250 | 2.0 | 9.0 | 0.40 | 0.64 | 0.63 | 94 | 1018.3 |
| 20260901054543 | 68 | 141 | 2.0 | 8.0 | 0.39 | 0.61 | 0.60 | 94 | 1018.4 |
| 20260901054021 | 68 | 119 | 3.0 | 8.0 | 0.39 | 0.58 | 0.58 | 94 | 1018.4 |
| 20260901053519 | 68 | 149 | 1.0 | 9.0 | 0.39 | 0.58 | 0.57 | 94 | 1018.3 |
| 20260901053039 | 68 | 0 | 1.0 | 9.0 | 0.38 | 0.55 | 0.54 | 94 | 1018.3 |
| 20260901052519 | 68 | 178 | 2.0 | 7.0 | 0.36 | 0.52 | 0.51 | 94 | 1018.4 |
| 20260901052020 | 68 | 187 | 0.0 | 8.0 | 0.36 | 0.50 | 0.49 | 94 | 1018.4 |
| 20260901051542 | 68 | 209 | 1.0 | 8.0 | 0.35 | 0.45 | 0.44 | 94 | 1018.4 |
| 20260901051018 | 68 | 137 | 1.0 | 5.0 | 0.36 | 0.39 | 0.38 | 94 | 1018.6 |
| 20260901050520 | 68 | 160 | 1.0 | 4.0 | 0.35 | 0.37 | 0.36 | 94 | 1018.6 |
| 20260901050041 | 68 | 238 | 1.0 | 3.0 | 0.31 | 0.32 | 0.31 | 94 | 1018.6 |
| 20260901045521 | 68 | 137 | 0.0 | 3.0 | 0.25 | 0.26 | 0.25 | 93 | 1018.8 |
| 20260901045020 | 68 | 153 | 1.0 | 3.0 | 0.23 | 0.24 | 0.23 | 93 | 1018.8 |
| 20260901044553 | 68 | 93 | 0.0 | 2.0 | 0.21 | 0.22 | 0.21 | 93 | 1018.8 |
| 20260901044017 | 68 | 0 | 0.0 | 2.0 | 0.19 | 0.20 | 0.19 | 93 | 1018.8 |
| 20260901043519 | 69 | 61 | 0.0 | 2.0 | 0.17 | 0.18 | 0.17 | 93 | 1018.8 |
| 20260901043037 | 69 | 9 | 0.0 | 2.0 | 0.16 | 0.17 | 0.16 | 92 | 1018.6 |
| 20260901042519 | 69 | 309 | 0.0 | 2.0 | 0.15 | 0.16 | 0.15 | 92 | 1018.7 |
| 20260901042020 | 69 | 0 | 0.0 | 2.0 | 0.12 | 0.13 | 0.12 | 92 | 1018.7 |
| 20260901041541 | 69 | 205 | 1.0 | 3.0 | 0.08 | 0.09 | 0.08 | 92 | 1018.8 |
| 20260901041024 | 69 | 265 | 1.0 | 4.0 | 0.02 | 0.03 | 0.02 | 91 | 1018.8 |
| 20260901040516 | 69 | 0 | 0.0 | 4.0 | 0.01 | 0.02 | 0.01 | 91 | 1018.8 |
| 20260901040055 | 69 | 153 | 1.0 | 4.0 | 0.00 | 0.01 | 0.00 | 90 | 1018.8 |
| 20260901035522 | 69 | 0 | 1.0 | 5.0 | 0.00 | 0.01 | 0.01 | 90 | 1018.8 |
| 20260901035018 | 69 | 234 | 1.0 | 5.0 | 0.00 | 0.01 | 0.01 | 90 | 1018.8 |
| 20260901034541 | 69 | 155 | 0.0 | 2.0 | 0.00 | 0.01 | 0.01 | 90 | 1018.8 |
| 20260901034019 | 69 | 51 | 1.0 | 4.0 | 0.00 | 0.01 | 0.01 | 90 | 1018.8 |
| 20260901033517 | 69 | 171 | 1.0 | 4.0 | 0.00 | 0.01 | 0.01 | 89 | 1018.8 |
| 20260901033038 | 69 | 178 | 1.0 | 6.0 | 0.00 | 0.01 | 0.01 | 89 | 1018.9 |
| 20260901032519 | 69 | 282 | 1.0 | 6.0 | 0.00 | 0.01 | 0.01 | 90 | 1018.9 |
| 20260901032017 | 69 | 137 | 1.0 | 5.0 | 0.00 | 0.01 | 0.01 | 90 | 1019.0 |
| 20260901031540 | 69 | 0 | 1.0 | 2.0 | 0.00 | 0.01 | 0.01 | 90 | 1019.0 |
| 20260901031017 | 69 | 0 | 0.0 | 3.0 | 0.00 | 0.01 | 0.01 | 90 | 1018.9 |
| 20260901030519 | 69 | 68 | 0.0 | 4.0 | 0.00 | 0.01 | 0.01 | 89 | 1019.0 |
| 20260901030040 | 69 | 265 | 1.0 | 5.0 | 0.00 | 0.01 | 0.01 | 89 | 1019.1 |
| 20260901025522 | 69 | 137 | 1.0 | 6.0 | 0.00 | 0.02 | 0.01 | 89 | 1019.1 |
| 20260901025021 | 69 | 160 | 2.0 | 6.0 | 0.00 | 0.02 | 0.01 | 89 | 1019.2 |
| 20260901024548 | 70 | 208 | 1.0 | 4.0 | 0.00 | 0.02 | 0.01 | 89 | 1019.3 |
| 20260901024018 | 70 | 0 | 0.0 | 4.0 | 0.00 | 0.02 | 0.01 | 89 | 1019.4 |
| 20260901023520 | 70 | 0 | 1.0 | 5.0 | 0.00 | 0.02 | 0.01 | 88 | 1019.4 |
| 20260901023048 | 70 | 198 | 1.0 | 7.0 | 0.00 | 0.02 | 0.01 | 88 | 1019.4 |
| 20260901022518 | 70 | 250 | 2.0 | 7.0 | 0.00 | 0.02 | 0.01 | 88 | 1019.5 |
| 20260901022019 | 70 | 208 | 1.0 | 5.0 | 0.00 | 0.02 | 0.01 | 88 | 1019.5 |
| 20260901021555 | 70 | 238 | 1.0 | 5.0 | 0.00 | 0.02 | 0.01 | 88 | 1019.5 |
| 20260901021016 | 70 | 205 | 1.0 | 5.0 | 0.00 | 0.02 | 0.01 | 87 | 1019.5 |
| 20260901020520 | 70 | 168 | 1.0 | 5.0 | 0.00 | 0.02 | 0.01 | 88 | 1019.4 |
| 20260901020040 | 70 | 0 | 1.0 | 5.0 | 0.00 | 0.02 | 0.01 | 88 | 1019.5 |
| 20260901015520 | 70 | 221 | 1.0 | 5.0 | 0.00 | 0.05 | 0.01 | 88 | 1019.5 |
| 20260901015021 | 70 | 193 | 0.0 | 5.0 | 0.00 | 0.05 | 0.01 | 88 | 1019.5 |
| 20260901014542 | 70 | 133 | 1.0 | 5.0 | 0.00 | 0.05 | 0.01 | 88 | 1019.6 |
| 20260901014019 | 70 | 76 | 0.0 | 2.0 | 0.00 | 0.05 | 0.01 | 88 | 1019.6 |
| 20260901013519 | 70 | 0 | 0.0 | 2.0 | 0.00 | 0.05 | 0.01 | 88 | 1019.6 |
| 20260901013042 | 70 | 0 | 0.0 | 2.0 | 0.00 | 0.05 | 0.01 | 87 | 1019.7 |
| 20260901012521 | 70 | 111 | 0.0 | 2.0 | 0.00 | 0.05 | 0.01 | 87 | 1019.6 |
| 20260901012022 | 70 | 0 | 0.0 | 2.0 | 0.00 | 0.05 | 0.01 | 87 | 1019.6 |
| 20260901011540 | 70 | 41 | 0.0 | 2.0 | 0.00 | 0.05 | 0.01 | 86 | 1019.6 |
| 20260901011025 | 70 | 0 | 0.0 | 2.0 | 0.00 | 0.05 | 0.01 | 85 | 1019.7 |
| 20260901010519 | 70 | 0 | 0.0 | 2.0 | 0.00 | 0.05 | 0.01 | 85 | 1019.7 |
| 20260901010042 | 70 | 0 | 0.0 | 3.0 | 0.00 | 0.05 | 0.01 | 85 | 1019.6 |
| 20260901005519 | 70 | 51 | 0.0 | 4.0 | 0.00 | 0.10 | 0.01 | 84 | 1019.6 |
| 20260901005023 | 70 | 51 | 0.0 | 4.0 | 0.00 | 0.10 | 0.01 | 85 | 1019.5 |
| 20260901004543 | 70 | 157 | 0.0 | 4.0 | 0.00 | 0.10 | 0.01 | 84 | 1019.5 |
| 20260901004022 | 70 | 146 | 1.0 | 4.0 | 0.00 | 0.10 | 0.01 | 84 | 1019.5 |
| 20260901003520 | 70 | 334 | 1.0 | 5.0 | 0.00 | 0.10 | 0.01 | 84 | 1019.5 |
| 20260901003039 | 70 | 265 | 1.0 | 5.0 | 0.00 | 0.10 | 0.01 | 84 | 1019.5 |
| 20260901002520 | 70 | 178 | 1.0 | 3.0 | 0.00 | 0.10 | 0.01 | 84 | 1019.4 |
| 20260901002026 | 70 | 292 | 1.0 | 3.0 | 0.00 | 0.10 | 0.01 | 84 | 1019.4 |
| 20260901001542 | 70 | 0 | 0.0 | 4.0 | 0.00 | 0.10 | 0.01 | 84 | 1019.3 |
| 20260901001019 | 70 | 0 | 0.0 | 5.0 | 0.00 | 0.10 | 0.01 | 84 | 1019.2 |
| 20260901000520 | 70 | 249 | 1.0 | 5.0 | 0.00 | 0.10 | 0.01 | 84 | 1019.3 |
| 20260901000041 | 70 | 196 | 0.0 | 4.0 | 0.00 | 0.10 | 0.01 | 84 | 1019.2 |
| 20260831235519 | 70 | 0 | 1.0 | 4.0 | 0.00 | 0.10 | 0.01 | 84 | 1019.2 |
| 20260831235023 | 70 | 9 | 0.0 | 3.0 | 0.00 | 0.10 | 0.01 | 84 | 1019.3 |
| 20260831234540 | 71 | 129 | 0.0 | 2.0 | 0.00 | 0.10 | 0.01 | 83 | 1019.4 |
| 20260831234021 | 71 | 0 | 0.0 | 2.0 | 0.00 | 0.10 | 0.01 | 83 | 1019.4 |
| 20260831233521 | 71 | 137 | 0.0 | 3.0 | 0.00 | 0.10 | 0.01 | 82 | 1019.5 |
| 20260831233037 | 71 | 76 | 1.0 | 3.0 | 0.00 | 0.10 | 0.01 | 82 | 1019.4 |
| 20260831232517 | 71 | 137 | 0.0 | 4.0 | 0.00 | 0.10 | 0.01 | 82 | 1019.4 |
| 20260831232022 | 71 | 0 | 1.0 | 6.0 | 0.00 | 0.10 | 0.01 | 82 | 1019.5 |
| 20260831231555 | 71 | 126 | 1.0 | 6.0 | 0.00 | 0.10 | 0.01 | 81 | 1019.6 |
| 20260831231019 | 71 | 238 | 1.0 | 6.0 | 0.00 | 0.10 | 0.01 | 81 | 1019.5 |
| 20260831230518 | 71 | 9 | 1.0 | 6.0 | 0.00 | 0.10 | 0.01 | 81 | 1019.6 |
| 20260831230040 | 71 | 93 | 1.0 | 5.0 | 0.00 | 0.10 | 0.01 | 81 | 1019.7 |
| 20260831225518 | 71 | 221 | 0.0 | 5.0 | 0.00 | 0.10 | 0.01 | 82 | 1019.7 |
| 20260831225023 | 71 | 0 | 0.0 | 2.0 | 0.00 | 0.10 | 0.01 | 82 | 1019.6 |
| 20260831224550 | 71 | 0 | 0.0 | 6.0 | 0.00 | 0.10 | 0.01 | 82 | 1019.5 |
| 20260831224021 | 71 | 0 | 1.0 | 6.0 | 0.00 | 0.10 | 0.01 | 82 | 1019.6 |
| 20260831223521 | 71 | 243 | 0.0 | 7.0 | 0.00 | 0.10 | 0.01 | 83 | 1019.5 |
| 20260831223040 | 71 | 68 | 1.0 | 7.0 | 0.00 | 0.10 | 0.01 | 82 | 1019.5 |
| 20260831222519 | 71 | 196 | 2.0 | 5.0 | 0.00 | 0.10 | 0.01 | 83 | 1019.7 |
| 20260831222017 | 71 | 0 | 1.0 | 3.0 | 0.00 | 0.10 | 0.01 | 83 | 1019.6 |
| 20260831221549 | 72 | 68 | 1.0 | 3.0 | 0.00 | 0.10 | 0.01 | 83 | 1019.7 |
| 20260831221021 | 72 | 0 | 0.0 | 5.0 | 0.00 | 0.10 | 0.01 | 82 | 1019.7 |
| 20260831220521 | 72 | 137 | 1.0 | 5.0 | 0.00 | 0.10 | 0.01 | 82 | 1019.8 |
| 20260831220047 | 72 | 0 | 1.0 | 5.0 | 0.00 | 0.10 | 0.01 | 82 | 1019.7 |
| 20260831215523 | 72 | 238 | 1.0 | 7.0 | 0.00 | 0.10 | 0.01 | 82 | 1019.8 |
| 20260831215019 | 72 | 123 | 1.0 | 7.0 | 0.00 | 0.10 | 0.01 | 81 | 1019.8 |
| 20260831214546 | 72 | 0 | 2.0 | 7.0 | 0.00 | 0.10 | 0.01 | 81 | 1019.8 |
| 20260831214023 | 72 | 201 | 1.0 | 6.0 | 0.00 | 0.10 | 0.01 | 81 | 1019.8 |
| 20260831213524 | 72 | 226 | 2.0 | 9.0 | 0.00 | 0.10 | 0.01 | 80 | 1019.8 |
| 20260831213038 | 72 | 329 | 2.0 | 9.0 | 0.00 | 0.10 | 0.01 | 80 | 1019.8 |
| 20260831212519 | 72 | 229 | 3.0 | 8.0 | 0.00 | 0.10 | 0.01 | 79 | 1019.9 |
| 20260831212020 | 73 | 178 | 2.0 | 6.0 | 0.00 | 0.10 | 0.01 | 79 | 1019.7 |
| 20260831211551 | 73 | 225 | 2.0 | 5.0 | 0.00 | 0.10 | 0.01 | 79 | 1019.9 |
| 20260831211019 | 73 | 178 | 1.0 | 7.0 | 0.00 | 0.10 | 0.01 | 78 | 1019.9 |
| 20260831210520 | 73 | 0 | 2.0 | 7.0 | 0.00 | 0.10 | 0.01 | 77 | 1019.9 |
| 20260831210036 | 73 | 178 | 1.0 | 7.0 | 0.00 | 0.10 | 0.01 | 77 | 1020.0 |
| 20260831205517 | 73 | 153 | 2.0 | 5.0 | 0.00 | 0.10 | 0.01 | 76 | 1020.1 |
| 20260831205019 | 74 | 0 | 1.0 | 6.0 | 0.00 | 0.10 | 0.01 | 76 | 1019.9 |
| 20260831204540 | 74 | 133 | 2.0 | 6.0 | 0.00 | 0.10 | 0.01 | 75 | 1019.9 |
| 20260831204019 | 74 | 133 | 1.0 | 6.0 | 0.00 | 0.10 | 0.01 | 76 | 1019.9 |
| 20260831203519 | 74 | 214 | 1.0 | 6.0 | 0.00 | 0.10 | 0.01 | 74 | 1019.9 |
| 20260831203044 | 74 | 123 | 2.0 | 5.0 | 0.00 | 0.10 | 0.01 | 73 | 1019.9 |
| 20260831202520 | 74 | 93 | 1.0 | 5.0 | 0.00 | 0.10 | 0.01 | 73 | 1020.0 |
| 20260831202019 | 74 | 0 | 1.0 | 5.0 | 0.00 | 0.10 | 0.01 | 73 | 1020.1 |
| 20260831201543 | 74 | 0 | 2.0 | 5.0 | 0.00 | 0.10 | 0.01 | 71 | 1020.0 |
| 20260831201021 | 75 | 211 | 1.0 | 5.0 | 0.00 | 0.10 | 0.01 | 72 | 1020.2 |
| 20260831200519 | 75 | 153 | 1.0 | 4.0 | 0.00 | 0.10 | 0.01 | 73 | 1020.3 |
| 20260831200041 | 75 | 0 | 1.0 | 6.0 | 0.00 | 0.10 | 0.01 | 72 | 1020.3 |
| 20260831195520 | 75 | 205 | 2.0 | 6.0 | 0.00 | 0.10 | 0.01 | 71 | 1020.3 |
| 20260831195022 | 75 | 168 | 1.0 | 5.0 | 0.00 | 0.10 | 0.01 | 71 | 1020.3 |
| 20260831194552 | 75 | 137 | 0.0 | 5.0 | 0.00 | 0.10 | 0.01 | 73 | 1020.3 |
| 20260831194024 | 75 | 221 | 1.0 | 6.0 | 0.00 | 0.10 | 0.01 | 72 | 1020.4 |
| 20260831193523 | 75 | 189 | 2.0 | 6.0 | 0.00 | 0.10 | 0.01 | 71 | 1020.5 |
| 20260831193048 | 76 | 163 | 2.0 | 7.0 | 0.00 | 0.10 | 0.01 | 71 | 1020.6 |
| 20260831192519 | 76 | 0 | 2.0 | 7.0 | 0.00 | 0.10 | 0.01 | 69 | 1020.6 |
| 20260831192022 | 76 | 146 | 3.0 | 7.0 | 0.00 | 0.10 | 0.01 | 69 | 1020.7 |
| 20260831191547 | 76 | 232 | 2.0 | 9.0 | 0.00 | 0.10 | 0.01 | 68 | 1020.7 |
| 20260831191018 | 76 | 205 | 3.0 | 9.0 | 0.00 | 0.10 | 0.01 | 69 | 1020.8 |
| 20260831190519 | 76 | 188 | 1.0 | 5.0 | 0.00 | 0.10 | 0.01 | 69 | 1020.7 |
| 20260831190042 | 76 | 137 | 1.0 | 6.0 | 0.00 | 0.10 | 0.01 | 69 | 1020.8 |
| 20260831185519 | 76 | 68 | 2.0 | 6.0 | 0.00 | 0.10 | 0.01 | 67 | 1021.0 |
| 20260831185021 | 77 | 93 | 2.0 | 6.0 | 0.00 | 0.10 | 0.01 | 69 | 1020.9 |
| 20260831184538 | 77 | 111 | 2.0 | 6.0 | 0.00 | 0.10 | 0.01 | 65 | 1021.0 |
| 20260831184020 | 77 | 93 | 2.0 | 6.0 | 0.00 | 0.10 | 0.01 | 67 | 1021.3 |
| 20260831183520 | 77 | 9 | 1.0 | 6.0 | 0.00 | 0.10 | 0.01 | 65 | 1021.1 |
| 20260831183043 | 77 | 119 | 1.0 | 5.0 | 0.00 | 0.10 | 0.01 | 65 | 1021.1 |
| 20260831182518 | 77 | 68 | 2.0 | 5.0 | 0.00 | 0.10 | 0.01 | 63 | 1021.1 |
| 20260831182018 | 77 | 210 | 2.0 | 7.0 | 0.00 | 0.10 | 0.01 | 66 | 1021.1 |
| 20260831181537 | 77 | 61 | 2.0 | 9.0 | 0.00 | 0.10 | 0.01 | 60 | 1021.1 |
| 20260831181022 | 77 | 115 | 3.0 | 9.0 | 0.00 | 0.10 | 0.01 | 63 | 1021.1 |
| 20260831180522 | 77 | 250 | 2.0 | 8.0 | 0.00 | 0.10 | 0.01 | 61 | 1021.2 |
| 20260831180042 | 77 | 70 | 3.0 | 8.0 | 0.00 | 0.10 | 0.01 | 62 | 1021.5 |
| 20260831175519 | 78 | 26 | 3.0 | 7.0 | 0.00 | 0.10 | 0.01 | 61 | 1021.5 |
| 20260831175019 | 77 | 309 | 1.0 | 9.0 | 0.00 | 0.10 | 0.01 | 66 | 1021.4 |
| 20260831174541 | 77 | 243 | 2.0 | 9.0 | 0.00 | 0.10 | 0.01 | 63 | 1021.6 |
| 20260831174020 | 77 | 59 | 3.0 | 9.0 | 0.00 | 0.10 | 0.01 | 63 | 1021.8 |
| 20260831173518 | 77 | 146 | 2.0 | 10.0 | 0.00 | 0.10 | 0.01 | 68 | 1021.8 |